Regional Weather Roundup
Issued by NWS

Home | Current Version | Previous Version | Text Only | Print | Product List | Glossary On
Versions: 1 2 3 4 5 6 7 8 9 10 11 12 13 14 15 16 17 18 19 20 21 22 23 24 25 26 27 28 29 30 31 32 33 34 35 36 37 38 39 40 41 42 43 44 45 46 47 48 49 50
000
ASUS44 KFWD 210410
RWRTX
NORTH TEXAS HOURLY WEATHER ROUNDUP
NATIONAL WEATHER SERVICE FORT WORTH TX
1100 PM CDT SAT SEP 20 2014

NOTE: "FAIR" INDICATES FEW OR NO CLOUDS BELOW 12,000 FEET WITH NO
SIGNIFICANT WEATHER AND/OR OBSTRUCTIONS TO VISIBILITY.

TXZ118-119-210500-
DALLAS/FORT WORTH METROPLEX

CITY           SKY/WX    TMP DP  RH WIND       PRES   REMARKS
DFW AIRPORT    CLEAR     79  62  56 SE6       30.01R
DALLAS LOVE    CLEAR     81  62  52 SE6       30.01R
FTW MEACHAM    CLEAR     80  62  54 SE6       30.01R
DAL-EXECUTIVE  CLEAR     78  63  59 SE3       30.02R
FTW-ALLIANCE   PTCLDY    77  61  57 SE6       30.01R
FTW-NAS-JRB    CLEAR     83  60  45 SE5       30.06R
FTW-SPINKS     CLEAR     73  62  68 CALM      30.04R
ARLINGTON      CLEAR     72  63  73 CALM      30.02R
GRAND PRAIRIE  CLEAR     79  60  51 CALM      30.03S
ADDISON        CLEAR     82  61  49 SE6       30.03S
MESQUITE       CLEAR     74  62  65 S3        30.01S
LANCASTER      CLEAR     74  62  67 CALM      30.02S
$$

TXZ091>094-102>105-117-120-121-131>134-210500-
NORTH CENTRAL TEXAS

CITY           SKY/WX    TMP DP  RH WIND       PRES   REMARKS
SHRMAN/DENISON CLEAR     76  64  65 SE5       30.03S
GAINESVILLE    CLEAR     75  63  66 CALM      30.05R
BOWIE          CLEAR     74  64  73 CALM      30.04R
BRIDGEPORT     CLEAR     75  62  65 S3        30.04S
DECATUR        CLEAR     77  59  53 SE5       30.04R
DENTON         CLEAR     74  62  66 S5        30.01R
MCKINNEY       CLEAR     76  62  62 CALM      30.01S
GREENVILLE     CLEAR     72  64  78 CALM      30.02S
ROCKWALL       CLEAR     78  64  61 SE3       30.00S
TERRELL        CLEAR     77  64  64 CALM      30.02R
WAXAHACHIE     CLEAR     74  61  62 CALM      30.03R
CLEBURNE       CLEAR     77  66  69 SE7       30.04R
GRANBURY       MOCLDY    78  65  62 SE3       30.03S
$$

TXZ083>090-098>101-113>116-127>130-139>142-154-155-210500-
WESTERN NORTH TEXAS

CITY           SKY/WX    TMP DP  RH WIND       PRES   REMARKS
WICHITA FALLS  CLOUDY    77  69  76 SE3       30.03R
WF-KICKAPOO    MOCLDY    77  67  72 CALM      30.05R
VERNON         CLOUDY    80  68  65 CALM      30.05R
ABILENE        CLOUDY    75  73  93 SE3       30.06S
ABILENE-DYESS  DRIZZLE   75  66  73 CALM      30.06R
BRECKENRIDGE   MOCLDY    78  69  73 S5        30.03S
GRAHAM         CLEAR     76  65  69 CALM      30.02R
MINERAL WELLS  CLEAR     76  64  66 SE5       30.02R
STEPHENVILLE   CLOUDY    76  66  73 CALM      30.07R
COMANCHE       MOCLDY    74  68  81 SE3       30.05R
BROWNWOOD      MOCLDY    73  72  94 CALM      30.05R
COLEMAN        PTCLDY    74  70  88 CALM      30.06S
BRADY          CLEAR     73  70  88 E6        30.05R
$$

TXZ143>147-156>162-174-175-210500-
CENTRAL TEXAS

CITY           SKY/WX    TMP DP  RH WIND       PRES   REMARKS
WACO           CLEAR     74  66  76 E3        30.01R
WACO-TSTC      CLEAR     72  68  88 CALM      30.01R
WACO-MCGREGOR  CLEAR     75  63  64 CALM      30.02R
HILLSBORO      CLEAR     77  64  63 E6        30.02R
CORSICANA      CLEAR     77  65  66 SE3       30.02R
MEXIA          CLEAR     74  67  76 CALM      30.00R
HEARNE         CLEAR     76  69  79 CALM      29.99S
CAMERON        CLEAR     76  69  79 CALM      29.99S
TEMPLE         CLEAR     75  64  69 E6        30.00S
KILLEEN        PTCLDY    75  70  83 SE6       30.02R
KILLEEN-SKYLRK CLEAR     73  64  73 E5        30.01S
FORT HOOD      CLEAR     77  68  73 CALM      30.01S
GATESVILLE     CLEAR     75  68  78 CALM      30.04R
HAMILTON       CLEAR     75  67  76 SE3       30.05R
LAMPASAS       CLEAR     76  73  91 CALM      30.02S
$$

TXZ095>097-106>112-122>126-135>138-148>153-164>167-210500-
EAST TEXAS

CITY           SKY/WX    TMP DP  RH WIND       PRES   REMARKS
PARIS          CLEAR     73  64  73 E6        30.03R
SULPHUR SPRNGS CLEAR     76  66  72 CALM      30.04R
MOUNT PLEASANT CLEAR     73  69  86 CALM      30.02S
GILMER         CLEAR     73  70  88 CALM      30.03R
MINEOLA        CLEAR     73  70  88 CALM      30.01S
TYLER          CLEAR     77  67  71 S3        30.01R
LONGVIEW       CLEAR     74  67  78 S3        30.00R
MARSHALL       CLEAR     73  68  82 CALM      30.03R
ATHENS         CLEAR     70  64  83 CALM      30.01R
PALESTINE      CLEAR     73  68  83 CALM      30.02R
JACKSONVILLE   CLEAR     77  66  68 CALM      30.04R
HENDERSON      CLEAR     71  69  93 CALM      30.02S
NACOGDOCHES    CLEAR     70  66  88 CALM      30.01S
LUFKIN         CLEAR     75  69  81 CALM      30.00R
$$

SUPPLEMENTAL OBSERVATIONS (CENTRAL)

CITY           SKY/WX    TMP DP  RH WIND       PRES   REMARKS
CADDO GRASSLND   N/A     72  66  83 S1          N/A
PAT MAYSE LAKE   N/A     75  70  83 NE3         N/A
GREENVILLE       N/A     75  63  64 SE1         N/A
CEDAR HILL       N/A    N/A N/A N/A SE5         N/A
PALESTINE        N/A     70  66  88 CALM        N/A
MCGREGOR         N/A     75  64  69 SE5         N/A
TEMPLE           N/A     77  68  73 E6          N/A
$$

SUPPLEMENTAL OBSERVATIONS (WEST)

CITY           SKY/WX    TMP DP  RH WIND       PRES   REMARKS
MILLERS CREEK    N/A     79  70  73 S1          N/A
POSSUM KINGDOM   N/A     75  64  69 CALM        N/A
LBJ GRASSLAND    N/A     79  59  50 SE5         N/A
GRANBURY         N/A     79  63  57 SE5         N/A
HAMBY            N/A     73  70  88 E3          N/A
IVIE RESERVOIR   N/A     75  70  83 E8          N/A
COLORADO BEND    N/A     75  70  83 SE3         N/A
$$

SUPPLEMENTAL OBSERVATIONS (EAST)

CITY           SKY/WX    TMP DP  RH WIND       PRES   REMARKS
CLARKSVILLE      N/A     75  68  78 CALM        N/A
TEXARKANA        N/A     70  68  94 CALM        N/A
LINDEN           N/A     73  70  88 CALM        N/A
GILMER           N/A     72  68  88 CALM        N/A
HENDERSON        N/A     70  66  88 CALM        N/A
LUFKIN           N/A     72  68  88 MISG        N/A
N SABINE NF      N/A     70  66  88 MISG        N/A
$$

SUPPLEMENTAL OBSERVATIONS ARE A COLLECTION OF AUTOMATED INSTRUMENTS
THAT ARE MAINTAINED BY A VARIETY OF FEDERAL AND STATE AGENCIES.
CERTAIN ELEMENTS...SUCH AS HUMIDITY VALUES AND SUSTAINED WIND
SPEEDS...MAY BE APPROXIMATED.



USA.gov is the U.S. government's official web portal to all federal, state and local government web resources and services.